COSMOS 1275 DEB, 12667

Orbit data source: Space-Track

COSMOS 1275 DEB, 12667 is space debris in LEO originally from a launch on Thu, 04 Jun 1981 UTC launched from the Plesetsk Missile And Space Complex (PKMTR). Debris objects in space refer to the collection of defunct objects orbiting the Earth. Examples of debris include non-operational satellites, rocket bodies, and fragments generated from explosions, collisions, or faulty payload assembly.

Loading next visibility...
Identifier
12667, 1981-053X
Orbit
LEO
Country
Flag of CISCIS
Related business
Manufacturer
Unknown
Mission
Spacecraft
Bus & Motor
Unknown
Mass
Unknown
Launch date (UTC)
1981-06-04 (45 years ago)
Launch vehicle
Unknown
Launch site
Plesetsk Missile And Space Complex (PKMTR)
Object type
Payload
Rocket body
Debris
Shape & HBR
Unknown shape, 0.1 m
Radar Cross Section
Small (<0.1 m²)

Expand to show TLE details & history
Last TLE update: 23 hours ago

TLE from 23 hours ago
0 COSMOS 1275 DEB
1 12667U 81053X   26033.98563837  .00000622  00000-0  54833-3 0  9998
2 12667  82.8381 120.1848 0035677  91.1972  30.1478 13.83479718235975
Epoch: 2026-02-02T23:39Z
TLE epoch observation values (Epoch: 2026-02-02T23:39:19.155Z)
Latitude
57.82455°
Longitude
160.72208°
Altitude
938.71 km
Speed
7.399 km/s
True Right ascension
19h 14m 53s
True Declination
57° 40' 23"
Sunlit
Object was in daylight at epoch
Visualization orbit readout
Latitude
Unknown
Longitude
Unknown
Altitude
Unknown
Speed
Unknown
Apparent Right ascension
Unknown
Apparent Declination
Unknown
Sunlit
N/A
Visualization observer readout
Local Sidereal Time
00:12:31
Azimuth
Unknown
Elevation
Unknown
Doppler factor
Unknown
Orbital elements
Apogee altitude
974.852 km
Perigee altitude
922.572 km
Semi-major axis
7,326.849 km
Eccentricity
0.00357
Inclination
82.8381°
RAAN
120.1848°
Arg. of periapsis
91.1972°
True anomaly
30.35392°
Mean anomaly
30.1478°
Eccentric anomaly
30.25078°
Mean motion
3.46073 °/min
Orbital period
104.02 mins
BSTAR
0.00054833
Loading maneuver chart data...
Computing Atmospheric mass density...
Loading historical data...
Loading historical data...
Loading historical data...
Loading historical data...
Loading historical data...
Loading historical data...
Loading historical data...

Documentation

Showing up to 5 results
|